RYR7051 EGNT-EBCI

Flight info

Callsign RYR7051
Flight time 1h 12m
Altitude 34000
Route GIRLI P18 STAFA L8 HON L15 BIG Q70 KOK KOK7A
Aircraft B738/M-SDE2E3FGHIRWXY/LB1

Departure

Time 2026-04-28 12:09
Airport Newcastle International Airport (EGNT)

Arrival

Time 2026-04-28 13:21
Airport Brussels South Charleroi Airport (EBCI)
Time Latitude Longitude Altitude Speed Heading
2026-04-28 11:41 55.03656 -1.70712 266 ft 0 kts
2026-04-28 12:01 55.03651 -1.70712 266 ft 4 kts
2026-04-28 12:01 55.03629 -1.70715 266 ft 3 kts
2026-04-28 12:02 55.03605 -1.70723 266 ft 4 kts 37°
2026-04-28 12:02 55.03596 -1.70753 266 ft 4 kts 94°
2026-04-28 12:02 55.03597 -1.70787 266 ft 0 kts 94°
2026-04-28 12:06 55.03597 -1.70775 266 ft 2 kts 94°
2026-04-28 12:06 55.03596 -1.70742 266 ft 3 kts 94°
2026-04-28 12:06 55.03594 -1.70693 266 ft 5 kts 94°
2026-04-28 12:06 55.03571 -1.70643 266 ft 6 kts 152°
2026-04-28 12:07 55.03527 -1.70642 266 ft 7 kts 182°
2026-04-28 12:07 55.03475 -1.70645 266 ft 8 kts 181°
2026-04-28 12:07 55.03415 -1.70647 267 ft 9 kts 178°
2026-04-28 12:07 55.03374 -1.70579 267 ft 10 kts 84°
2026-04-28 12:08 55.03392 -1.70488 266 ft 0 kts 65°
2026-04-28 12:08 55.03418 -1.70391 265 ft 36 kts 65°
2026-04-28 12:08 55.03639 -1.69556 257 ft 115 kts 65°
2026-04-28 12:08 55.04067 -1.67962 395 ft 166 kts 65°
2026-04-28 12:09 55.04608 -1.66105 1237 ft 177 kts 64°
2026-04-28 12:09 55.05148 -1.64142 2204 ft 183 kts 63°
2026-04-28 12:09 55.05697 -1.62147 3076 ft 190 kts 64°
2026-04-28 12:09 55.06258 -1.59944 3632 ft 201 kts 75°
2026-04-28 12:10 55.06203 -1.57531 4323 ft 212 kts 107°
2026-04-28 12:10 55.05499 -1.55156 4957 ft 230 kts 124°
2026-04-28 12:10 55.04334 -1.53131 5608 ft 248 kts 147°
2026-04-28 12:10 55.02608 -1.52315 6244 ft 271 kts 179°
2026-04-28 12:11 55.00713 -1.52669 7099 ft 278 kts 182°
2026-04-28 12:11 54.98772 -1.52937 7681 ft 282 kts 180°
2026-04-28 12:11 54.96820 -1.53765 8131 ft 294 kts 207°
2026-04-28 12:11 54.95085 -1.55634 8991 ft 298 kts 209°
2026-04-28 12:12 54.93299 -1.57526 9915 ft 302 kts 209°
2026-04-28 12:12 54.91468 -1.59436 10578 ft 316 kts 208°
2026-04-28 12:12 54.89490 -1.61479 10781 ft 343 kts 209°
2026-04-28 12:12 54.87365 -1.63664 10987 ft 367 kts 209°
2026-04-28 12:13 54.85119 -1.65971 11534 ft 378 kts 209°
2026-04-28 12:13 54.82831 -1.68321 12252 ft 384 kts 209°
2026-04-28 12:13 54.80543 -1.70665 12999 ft 389 kts 209°
2026-04-28 12:13 54.78199 -1.73063 13734 ft 394 kts 209°
2026-04-28 12:14 54.75819 -1.75493 14421 ft 400 kts 209°
2026-04-28 12:14 54.73398 -1.77958 15080 ft 406 kts 208°
2026-04-28 12:14 54.70910 -1.80342 15719 ft 410 kts 206°
2026-04-28 12:14 54.68364 -1.82635 16378 ft 415 kts 205°
2026-04-28 12:15 54.65777 -1.84940 17033 ft 419 kts 205°
2026-04-28 12:15 54.63169 -1.87252 17669 ft 424 kts 205°
2026-04-28 12:15 54.60559 -1.89564 18301 ft 428 kts 205°
2026-04-28 12:15 54.57890 -1.91927 18904 ft 433 kts 205°
2026-04-28 12:16 54.55195 -1.94314 19433 ft 437 kts 205°
2026-04-28 12:16 54.52476 -1.96722 19968 ft 441 kts 205°
2026-04-28 12:16 54.49731 -1.99154 20514 ft 445 kts 205°
2026-04-28 12:16 54.47896 -2.00766 20881 ft 447 kts 203°
2026-04-28 12:17 54.44020 -2.03409 21580 ft 450 kts 196°
2026-04-28 12:17 54.41058 -2.05156 22082 ft 453 kts 195°
2026-04-28 12:17 54.38044 -2.06890 22565 ft 458 kts 195°
2026-04-28 12:17 54.35011 -2.08620 23045 ft 462 kts 195°
2026-04-28 12:18 54.31953 -2.10357 23520 ft 465 kts 195°
2026-04-28 12:18 54.28852 -2.12023 23971 ft 467 kts 189°
2026-04-28 12:18 54.25641 -2.12803 24330 ft 464 kts 178°
2026-04-28 12:18 54.22453 -2.13028 24777 ft 465 kts 177°
2026-04-28 12:19 54.19194 -2.13196 25146 ft 469 kts 176°
2026-04-28 12:19 54.15922 -2.13371 25503 ft 473 kts 176°
2026-04-28 12:19 54.12618 -2.13580 25884 ft 476 kts 177°
2026-04-28 12:19 54.09302 -2.13824 26260 ft 478 kts 177°
2026-04-28 12:20 54.05965 -2.14094 26621 ft 481 kts 178°
2026-04-28 12:20 54.03746 -2.14284 26862 ft 483 kts 178°
2026-04-28 12:20 54.00382 -2.14579 27212 ft 485 kts 178°
2026-04-28 12:20 53.96984 -2.14880 27590 ft 488 kts 177°
2026-04-28 12:21 53.92465 -2.15279 27981 ft 493 kts 177°
2026-04-28 12:21 53.90148 -2.15481 28198 ft 495 kts 177°
2026-04-28 12:21 53.86701 -2.15782 28530 ft 497 kts 177°
2026-04-28 12:21 53.83232 -2.16084 28855 ft 499 kts 177°
2026-04-28 12:22 53.79804 -2.16381 29171 ft 501 kts 177°
2026-04-28 12:22 53.76296 -2.16684 29475 ft 503 kts 177°
2026-04-28 12:22 53.72942 -2.16973 29813 ft 504 kts 176°
2026-04-28 12:22 53.69445 -2.17257 30305 ft 502 kts 175°
2026-04-28 12:23 53.65951 -2.17651 30684 ft 503 kts 176°
2026-04-28 12:23 53.62463 -2.17992 31054 ft 499 kts 174°
2026-04-28 12:23 53.58987 -2.18149 31374 ft 500 kts 174°
2026-04-28 12:23 53.55538 -2.18390 31682 ft 501 kts 175°
2026-04-28 12:24 53.52032 -2.18692 32058 ft 500 kts 175°
2026-04-28 12:24 53.48563 -2.19013 32453 ft 498 kts 175°
2026-04-28 12:24 53.45056 -2.19338 32815 ft 497 kts 175°
2026-04-28 12:24 53.41598 -2.19649 33125 ft 497 kts 175°
2026-04-28 12:25 53.38137 -2.19951 33427 ft 497 kts 175°
2026-04-28 12:25 53.34658 -2.20244 33418 ft 501 kts 175°
2026-04-28 12:25 53.27717 -2.20829 33428 ft 497 kts 175°
2026-04-28 12:26 53.20899 -2.21407 33449 ft 493 kts 174°
2026-04-28 12:26 53.14042 -2.21979 33426 ft 493 kts 174°
2026-04-28 12:27 53.07192 -2.22549 33419 ft 492 kts 174°
2026-04-28 12:27 53.00351 -2.23118 33401 ft 492 kts 174°
2026-04-28 12:28 52.93479 -2.23688 33399 ft 494 kts 174°
2026-04-28 12:28 52.86787 -2.22987 33406 ft 469 kts 154°
2026-04-28 12:29 52.81043 -2.18746 33398 ft 444 kts 136°
2026-04-28 12:29 52.78602 -2.15757 33404 ft 434 kts 128°
2026-04-28 12:29 52.76409 -2.12332 33574 ft 434 kts 126°
2026-04-28 12:30 52.74263 -2.08903 33948 ft 433 kts 126°
2026-04-28 12:30 52.72082 -2.05414 34407 ft 429 kts 126°
2026-04-28 12:30 52.69934 -2.01995 34730 ft 428 kts 126°
2026-04-28 12:30 52.67777 -1.98576 34926 ft 431 kts 127°
2026-04-28 12:31 52.65636 -1.95197 35039 ft 434 kts 127°
2026-04-28 12:31 52.63455 -1.91773 35259 ft 434 kts 127°
2026-04-28 12:31 52.61261 -1.88344 35405 ft 436 kts 128°
2026-04-28 12:32 52.56816 -1.81419 35394 ft 439 kts 128°
2026-04-28 12:32 52.52394 -1.74569 35395 ft 434 kts 128°
2026-04-28 12:33 52.48000 -1.67769 35409 ft 435 kts 128°
2026-04-28 12:33 52.43602 -1.60975 35405 ft 437 kts 128°
2026-04-28 12:34 52.39165 -1.54142 35408 ft 439 kts 128°
2026-04-28 12:34 52.34697 -1.47282 35399 ft 441 kts 129°
2026-04-28 12:35 52.30225 -1.40439 35402 ft 443 kts 129°
2026-04-28 12:35 52.25705 -1.33562 35418 ft 445 kts 131°
2026-04-28 12:36 52.21151 -1.26674 35391 ft 447 kts 131°
2026-04-28 12:36 52.16593 -1.19795 35407 ft 446 kts 130°
2026-04-28 12:37 52.12055 -1.12870 35384 ft 447 kts 130°
2026-04-28 12:37 52.07523 -1.06006 35369 ft 447 kts 130°
2026-04-28 12:38 52.02956 -0.99132 35355 ft 447 kts 131°
2026-04-28 12:38 51.98381 -0.92274 35329 ft 448 kts 132°
2026-04-28 12:39 51.93793 -0.85417 35318 ft 447 kts 132°
2026-04-28 12:39 51.89255 -0.78654 35317 ft 446 kts 132°
2026-04-28 12:40 51.84682 -0.71856 35316 ft 446 kts 132°
2026-04-28 12:40 51.80103 -0.65069 35348 ft 445 kts 133°
2026-04-28 12:41 51.75585 -0.58392 35329 ft 446 kts 133°
2026-04-28 12:41 51.70975 -0.51597 35405 ft 446 kts 133°
2026-04-28 12:42 51.66387 -0.44848 35296 ft 447 kts 133°
2026-04-28 12:42 51.61771 -0.38087 35294 ft 447 kts 133°
2026-04-28 12:43 51.57293 -0.31167 35294 ft 443 kts 124°
2026-04-28 12:43 51.54280 -0.22681 35289 ft 435 kts 107°
2026-04-28 12:44 51.52480 -0.13421 35290 ft 434 kts 104°
2026-04-28 12:44 51.50704 -0.04100 35286 ft 436 kts 104°
2026-04-28 12:45 51.48893 0.05207 35294 ft 437 kts 105°
2026-04-28 12:45 51.47058 0.14523 35290 ft 438 kts 105°
2026-04-28 12:46 51.45208 0.23859 35301 ft 439 kts 105°
2026-04-28 12:46 51.43348 0.33200 35291 ft 440 kts 105°
2026-04-28 12:47 51.41478 0.42551 35288 ft 440 kts 105°
2026-04-28 12:47 51.39614 0.51825 35281 ft 440 kts 105°
2026-04-28 12:48 51.37731 0.61154 35300 ft 440 kts 106°
2026-04-28 12:48 51.35834 0.70504 35283 ft 440 kts 106°
2026-04-28 12:49 51.33949 0.79756 35280 ft 440 kts 106°
2026-04-28 12:49 51.32047 0.89049 35307 ft 439 kts 106°
2026-04-28 12:50 51.30146 0.98334 35263 ft 439 kts 107°
2026-04-28 12:50 51.28550 1.07687 35266 ft 436 kts 97°
2026-04-28 12:51 51.28153 1.17421 34609 ft 442 kts 93°
2026-04-28 12:51 51.27983 1.22299 33903 ft 440 kts 93°
2026-04-28 12:51 51.27801 1.27195 33109 ft 440 kts 94°
2026-04-28 12:51 51.27607 1.32027 32198 ft 442 kts 94°
2026-04-28 12:52 51.27401 1.36924 31451 ft 440 kts 94°
2026-04-28 12:52 51.27216 1.41789 30707 ft 439 kts 94°
2026-04-28 12:52 51.27006 1.46667 29874 ft 438 kts 95°
2026-04-28 12:52 51.26783 1.51495 29305 ft 430 kts 95°
2026-04-28 12:53 51.26575 1.56244 28635 ft 425 kts 95°
2026-04-28 12:53 51.26373 1.60872 28081 ft 419 kts 95°
2026-04-28 12:53 51.26171 1.65471 27520 ft 413 kts 95°
2026-04-28 12:53 51.26035 1.68553 27144 ft 409 kts 95°
2026-04-28 12:54 51.25770 1.74520 26422 ft 402 kts 95°
2026-04-28 12:54 51.25571 1.78931 25897 ft 397 kts 95°
2026-04-28 12:54 51.25372 1.83313 25375 ft 393 kts 96°
2026-04-28 12:54 51.25174 1.87645 24843 ft 389 kts 96°
2026-04-28 12:55 51.24977 1.91937 24259 ft 386 kts 96°
2026-04-28 12:55 51.24781 1.96154 23726 ft 384 kts 97°
2026-04-28 12:55 51.24583 2.00387 23134 ft 381 kts 96°
2026-04-28 12:55 51.24452 2.03220 23028 ft 380 kts 96°
2026-04-28 12:56 51.24189 2.08947 22673 ft 397 kts 96°
2026-04-28 12:56 51.23987 2.13375 22402 ft 400 kts 96°
2026-04-28 12:56 51.23785 2.17795 22130 ft 396 kts 96°
2026-04-28 12:56 51.23585 2.22157 21877 ft 393 kts 96°
2026-04-28 12:57 51.23452 2.25030 21715 ft 391 kts 96°
2026-04-28 12:57 51.23248 2.29353 21456 ft 389 kts 96°
2026-04-28 12:57 51.23044 2.33645 21209 ft 388 kts 96°
2026-04-28 12:57 51.22629 2.37877 20932 ft 385 kts 107°
2026-04-28 12:58 51.21657 2.41829 20728 ft 382 kts 117°
2026-04-28 12:58 51.20293 2.45401 20474 ft 382 kts 128°
2026-04-28 12:58 51.18563 2.48621 20237 ft 382 kts 131°
2026-04-28 12:58 51.16796 2.51794 19985 ft 383 kts 131°
2026-04-28 12:59 51.15042 2.54983 19732 ft 383 kts 131°
2026-04-28 12:59 51.13294 2.58196 19496 ft 382 kts 131°
2026-04-28 12:59 51.11583 2.61417 19248 ft 381 kts 127°
2026-04-28 12:59 51.10194 2.64996 19004 ft 380 kts 117°
2026-04-28 13:00 51.09152 2.68874 18747 ft 380 kts 110°
2026-04-28 13:00 51.08501 2.72890 18519 ft 379 kts 103°
2026-04-28 13:00 51.08008 2.77003 18250 ft 377 kts 102°
2026-04-28 13:00 51.07533 2.81101 17984 ft 376 kts 102°
2026-04-28 13:01 51.07059 2.85176 17731 ft 373 kts 102°
2026-04-28 13:01 51.06583 2.89225 17512 ft 372 kts 103°
2026-04-28 13:01 51.06100 2.93269 17260 ft 371 kts 102°
2026-04-28 13:01 51.05613 2.97308 17039 ft 372 kts 102°
2026-04-28 13:02 51.05122 3.01344 16791 ft 371 kts 103°
2026-04-28 13:02 51.04628 3.05378 16551 ft 371 kts 103°
2026-04-28 13:02 51.04134 3.09400 16309 ft 370 kts 102°
2026-04-28 13:02 51.03629 3.13414 16063 ft 368 kts 104°
2026-04-28 13:03 51.02814 3.17130 15769 ft 357 kts 115°
2026-04-28 13:03 51.01751 3.20685 15155 ft 356 kts 116°
2026-04-28 13:03 51.00685 3.24238 14538 ft 356 kts 115°
2026-04-28 13:03 50.99636 3.27750 14288 ft 347 kts 115°
2026-04-28 13:04 50.98613 3.31189 14022 ft 343 kts 116°
2026-04-28 13:04 50.97580 3.34655 13764 ft 349 kts 117°
2026-04-28 13:04 50.96533 3.38192 13491 ft 356 kts 116°
2026-04-28 13:04 50.95482 3.41752 13210 ft 356 kts 116°
2026-04-28 13:05 50.94429 3.45314 12956 ft 354 kts 116°
2026-04-28 13:05 50.93394 3.48810 12707 ft 347 kts 116°
2026-04-28 13:05 50.92371 3.52261 12455 ft 343 kts 116°
2026-04-28 13:05 50.91361 3.55652 12223 ft 344 kts 116°
2026-04-28 13:06 50.90338 3.59083 11970 ft 345 kts 115°
2026-04-28 13:06 50.89314 3.62530 11734 ft 344 kts 115°
2026-04-28 13:06 50.88304 3.65914 11480 ft 334 kts 115°
2026-04-28 13:06 50.87328 3.69191 11242 ft 323 kts 115°
2026-04-28 13:07 50.86381 3.72355 11017 ft 313 kts 115°
2026-04-28 13:07 50.85461 3.75431 10793 ft 304 kts 115°
2026-04-28 13:07 50.84569 3.78412 10592 ft 295 kts 115°
2026-04-28 13:07 50.83697 3.81320 10378 ft 288 kts 115°
2026-04-28 13:08 50.82849 3.84142 10185 ft 281 kts 115°
2026-04-28 13:08 50.82027 3.86875 10148 ft 268 kts 115°
2026-04-28 13:08 50.81255 3.89439 10011 ft 260 kts 115°
2026-04-28 13:08 50.80468 3.92050 9658 ft 260 kts 115°
2026-04-28 13:09 50.79687 3.94620 9416 ft 258 kts 115°
2026-04-28 13:09 50.78914 3.97173 9234 ft 257 kts 115°
2026-04-28 13:09 50.78145 3.99734 9037 ft 258 kts 115°
2026-04-28 13:09 50.77366 4.02305 8858 ft 259 kts 115°
2026-04-28 13:10 50.76587 4.04887 8645 ft 261 kts 115°
2026-04-28 13:10 50.75797 4.07496 8480 ft 264 kts 115°
2026-04-28 13:10 50.75009 4.10088 8279 ft 264 kts 115°
2026-04-28 13:10 50.74211 4.12713 8099 ft 263 kts 115°
2026-04-28 13:11 50.73422 4.15302 7909 ft 261 kts 115°
2026-04-28 13:11 50.72635 4.17877 7724 ft 259 kts 115°
2026-04-28 13:11 50.71856 4.20437 7534 ft 258 kts 115°
2026-04-28 13:11 50.71081 4.22979 7357 ft 257 kts 115°
2026-04-28 13:12 50.70303 4.25524 7162 ft 256 kts 115°
2026-04-28 13:12 50.69531 4.28046 7007 ft 254 kts 115°
2026-04-28 13:12 50.68762 4.30557 6806 ft 254 kts 115°
2026-04-28 13:12 50.68001 4.33040 6621 ft 254 kts 115°
2026-04-28 13:13 50.67232 4.35547 6440 ft 254 kts 115°
2026-04-28 13:13 50.66464 4.38050 6253 ft 252 kts 115°
2026-04-28 13:13 50.65702 4.40517 6075 ft 246 kts 115°
2026-04-28 13:13 50.64967 4.42894 5905 ft 235 kts 115°
2026-04-28 13:14 50.64277 4.45150 5732 ft 222 kts 115°
2026-04-28 13:14 50.63612 4.47312 5588 ft 219 kts 115°
2026-04-28 13:14 50.62954 4.49442 5423 ft 211 kts 115°
2026-04-28 13:14 50.62329 4.51459 5279 ft 197 kts 115°
2026-04-28 13:15 50.61744 4.53350 5035 ft 189 kts 115°
2026-04-28 13:15 50.61191 4.55140 4836 ft 180 kts 114°
2026-04-28 13:15 50.60653 4.56879 4678 ft 171 kts 114°
2026-04-28 13:15 50.60143 4.58527 4560 ft 168 kts 113°
2026-04-28 13:16 50.59624 4.60200 4441 ft 173 kts 114°
2026-04-28 13:16 50.59091 4.61913 4332 ft 176 kts 113°
2026-04-28 13:16 50.58551 4.63664 4202 ft 178 kts 112°
2026-04-28 13:16 50.58009 4.65411 4025 ft 175 kts 112°
2026-04-28 13:17 50.57476 4.67116 3928 ft 171 kts 111°
2026-04-28 13:17 50.56921 4.68771 3766 ft 174 kts 121°
2026-04-28 13:17 50.55968 4.69995 3634 ft 180 kts 147°
2026-04-28 13:17 50.54703 4.70409 3601 ft 194 kts 178°
2026-04-28 13:18 50.53431 4.69620 3562 ft 209 kts 220°
2026-04-28 13:18 50.52597 4.67709 3453 ft 218 kts 238°
2026-04-28 13:18 50.51894 4.65587 3159 ft 217 kts 244°
2026-04-28 13:18 50.51288 4.63526 2889 ft 201 kts 246°
2026-04-28 13:19 50.50734 4.61608 2640 ft 189 kts 247°
2026-04-28 13:19 50.50177 4.59696 2365 ft 190 kts 246°
2026-04-28 13:19 50.49646 4.57880 2118 ft 173 kts 246°
2026-04-28 13:19 50.49159 4.56207 1870 ft 166 kts 247°
2026-04-28 13:20 50.48690 4.54594 1678 ft 161 kts 247°
2026-04-28 13:20 50.48220 4.52968 1429 ft 163 kts 247°
2026-04-28 13:20 50.47736 4.51383 1204 ft 161 kts 249°
2026-04-28 13:20 50.47285 4.49809 1016 ft 156 kts 249°
2026-04-28 13:21 50.46844 4.48250 821 ft 157 kts 246°
2026-04-28 13:21 50.46391 4.46678 610 ft 156 kts 248°
2026-04-28 13:21 50.45976 4.45256 589 ft 126 kts 245°
2026-04-28 13:21 50.45762 4.44520 597 ft 44 kts 245°
2026-04-28 13:22 50.45658 4.44158 593 ft 34 kts 245°
2026-04-28 13:22 50.45663 4.43986 593 ft 18 kts 353°
2026-04-28 13:22 50.45725 4.44060 593 ft 7 kts 50°
2026-04-28 13:22 50.45755 4.44120 594 ft 7 kts 51°
2026-04-28 13:23 50.45785 4.44179 596 ft 7 kts 52°
2026-04-28 13:23 50.45813 4.44238 598 ft 7 kts 52°
2026-04-28 13:23 50.45843 4.44296 598 ft 9 kts 51°
2026-04-28 13:23 50.45889 4.44389 598 ft 11 kts 52°
2026-04-28 13:24 50.45933 4.44487 599 ft 11 kts 57°
2026-04-28 13:24 50.45964 4.44598 598 ft 13 kts 66°
2026-04-28 13:24 50.46007 4.44741 596 ft 16 kts 65°
2026-04-28 13:24 50.46052 4.44897 596 ft 15 kts 65°
2026-04-28 13:25 50.46100 4.45062 595 ft 17 kts 65°
2026-04-28 13:25 50.46150 4.45232 598 ft 17 kts 66°
2026-04-28 13:25 50.46199 4.45399 597 ft 18 kts 64°
2026-04-28 13:25 50.46251 4.45577 599 ft 18 kts 69°
2026-04-28 13:26 50.46301 4.45751 596 ft 17 kts 65°
2026-04-28 13:26 50.46349 4.45917 596 ft 17 kts 65°
2026-04-28 13:26 50.46397 4.46082 591 ft 17 kts 65°
2026-04-28 13:26 50.46446 4.46252 590 ft 17 kts 66°
2026-04-28 13:27 50.46498 4.46430 588 ft 19 kts 65°
2026-04-28 13:27 50.46552 4.46616 590 ft 18 kts 65°
2026-04-28 13:27 50.46597 4.46769 590 ft 10 kts 59°
2026-04-28 13:27 50.46658 4.46787 590 ft 10 kts 335°
2026-04-28 13:28 50.46724 4.46808 586 ft 12 kts 57°
2026-04-28 13:28 50.46764 4.46902 584 ft 9 kts 10°
2026-04-28 13:28 50.46789 4.46888 584 ft 2 kts 333°
2026-04-28 13:28 50.46802 4.46879 584 ft 0 kts 335°
2026-04-28 13:29 50.46804 4.46877 584 ft 0 kts 335°
2026-04-28 13:29 50.46806 4.46876 584 ft 0 kts 335°